sat.trackr.live / text

‹ back to catalog

ONEWEB-0681

NORAD 56717 · 2023-068H

PAYLOAD ACTIVE UNKNOWN

§ Identity

Operator
Country
UK
Launch date
2023-05-20
Launch site
AFWTR
Launch vehicle
Mass (kg)
RCS (m²)

Purposes: comms

External: N2YO · Heavens-Above · Gunter

§ Orbital elements

Epoch: 2026-09-19T15:20:15.492480Z

Period
108.98 min
Inclination
87.9285°
Eccentricity
0.0002968
Mean motion
13.21301129 rev/d
Perigee alt
1,177.5 km
Apogee alt
1,182.0 km
Semi-major
7,557.9 km
B*
6.8330e-5
RAAN
225.1838°
Arg perigee
85.2999°
Mean anomaly
274.8474°
Rev number
16,356

§ Raw data

ONEWEB-06811 56717U 23068H   26262.63906820  .00000041  00000+0  68330-4 0  99952 56717  87.9285 225.1838 0002968  85.2999 274.8474 13.21301129163563

JSON: /api/v1/satellites/56717 · /tle

For live sub-satellite position, see the globe view (requires WebGL).

§ Visibility from observer

Set your observer location to see the next 7 days of passes ≥ 10°. The values pass through the URL so the page stays shareable.

No JS? Fill the form by hand. The geolocation button needs JavaScript.